TRITON-1

Last updated on Thu Nov 21 2024 00:03:39 GMT+0000 (Coordinated Universal Time)

1 39427U 13066M 24325.60195341 .00007401 00000+0 98650-3 0 9998 2 39427 97.8387 238.7351 0097017 298.4117 60.7341 14.76649486589271
UTC large
Height (km)
Speed (km/s)
/
Latitude / Longitude
Inclination (degrees)
Orbital Period (minutes)
Azimuth
Elevation
Range (km)
Doppler Factor

Next 0 passes for location: London (51.5072 / 0.1276)

Sorry there are no passes over London.